Flag for Russia Weather past 2 weeks in Pyatigorsk, Russia

Now
32 °F

Low clouds.


Feels Like: 21 °F
Forecast: 26 / 47 °F
Wind: 17 mph from Southeast

Location: Mineral'Nye Vody

Current Time: Jan 31, 2015 at 12:18:37 PM

Latest Report: Jan 31, 2015 at 12:00 PM


Visibility: N/A

Pressure: 29.95 "Hg

Humidity: 93%

Dew point: 30 °F

Location of PyatigorskLocation

Historic Weather in Pyatigorsk — Graph

°F

Pyatigorsk temperature yesterday

Maximum temperature yesterday: 36 °F (at 1:30 PM)
Minimum temperature yesterday: 30 °F (at 2:30 AM)
Average temperature yesterday: 32 °F

Past Weeks' High & Low Weather Summary

 TemperatureHumidityPressure
High50 °F (Jan 21, 2:00 PM)100% (Jan 17, 11:30 PM)30.42 "Hg (Jan 17, 11:30 PM)
Low18 °F (Jan 19, 6:00 AM)53% (Jan 18, 4:00 PM)29.83 "Hg (Jan 29, 12:00 AM)
Average32 °F92%30.17 "Hg
* Reported Jan 16 11:00 AM — Jan 31 11:00 AM, Pyatigorsk, Weather by CustomWeather, © 2014

Note: Actual official high and low records may vary slightly from our data, if they occured in-between our weather recording intervals... More about our weather records

Advertising

Pyatigorsk weather history for previous 24 hours

 ConditionsComfort  
Time TempWeatherWind HumidityBarometerVisibility
11:00 AM
Jan 31
32 °FLow clouds.20 mph93%29.95 "HgN/A
10:30 AM32 °FLow clouds.15 mph93%29.95 "HgN/A
10:00 AM32 °FLow clouds.15 mph93%29.98 "HgN/A
9:30 AM32 °FLow clouds.13 mph93%29.98 "Hg4 mi
9:00 AM32 °FLow clouds.17 mph93%29.98 "Hg4 mi
8:30 AM30 °FLow clouds.15 mph100%29.98 "Hg4 mi
8:00 AM30 °FLow clouds.13 mph100%29.98 "Hg4 mi
7:30 AM30 °FLight freezing rain. Low clouds.15 mph100%29.98 "Hg4 mi
7:00 AM30 °FLight freezing rain. Low clouds.10 mph100%29.98 "Hg4 mi
6:00 AM30 °FLight freezing rain. Ice fog.15 mph100%29.95 "Hg3 mi
5:30 AM32 °FLight freezing rain. Ice fog.13 mph93%29.95 "Hg2 mi
5:00 AM32 °FLight freezing rain. Ice fog.13 mph93%29.95 "Hg2 mi
4:30 AM32 °FIce fog.13 mph93%29.95 "Hg3 mi
4:00 AM32 °FIce fog.13 mph93%29.98 "Hg3 mi
3:30 AM32 °FLow clouds.10 mph93%29.98 "Hg4 mi
3:00 AM32 °FLow clouds.10 mph93%29.98 "Hg4 mi
2:30 AM32 °FLow clouds.10 mph93%29.98 "Hg4 mi
2:00 AM32 °FLow clouds.13 mph93%29.95 "Hg4 mi
1:30 AM32 °FDrizzle. Low clouds.10 mph100%29.95 "Hg4 mi
1:00 AM32 °FDrizzle. Low clouds.10 mph100%29.95 "Hg4 mi
12:30 AM32 °FDrizzle. Low clouds.13 mph100%29.95 "Hg4 mi
11:30 PM
Jan 30
32 °FLow clouds.15 mph100%29.95 "Hg4 mi
11:00 PM32 °FLow clouds.15 mph100%29.95 "Hg4 mi
10:30 PM32 °FLow clouds.15 mph100%29.95 "Hg4 mi
10:00 PM32 °FLow clouds.15 mph100%29.95 "HgN/A
9:30 PM32 °FLow clouds.13 mph93%29.95 "HgN/A
9:00 PM32 °FPassing clouds.17 mph93%29.95 "HgN/A
8:30 PM30 °FPassing clouds.17 mph100%29.95 "Hg4 mi
8:00 PM30 °FPassing clouds.17 mph100%29.95 "Hg4 mi
7:30 PM32 °FLight freezing rain. Ice fog.20 mph93%29.95 "Hg2 mi
7:00 PM32 °FLight freezing rain. Ice fog.17 mph93%29.95 "Hg3 mi
6:30 PM32 °FLight freezing rain. Ice fog.17 mph100%29.95 "Hg2 mi
6:00 PM32 °FIce fog.15 mph100%29.95 "Hg3 mi
5:30 PM32 °FLow clouds.15 mph100%29.95 "Hg4 mi
5:00 PM32 °FLow clouds.17 mph100%29.95 "HgN/A
4:30 PM32 °FLow clouds.17 mph100%29.95 "HgN/A
4:00 PM34 °FLow clouds.15 mph93%29.92 "HgN/A
3:30 PM34 °FPartly sunny.15 mph93%29.92 "HgN/A
3:00 PM36 °FPartly sunny.13 mph93%29.92 "HgN/A
2:30 PM36 °FPartly sunny.10 mph93%29.92 "HgN/A
2:00 PM36 °FPartly sunny.13 mph93%29.92 "HgN/A
1:30 PM36 °FPartly sunny.13 mph93%29.92 "HgN/A
1:00 PM34 °FLow clouds.10 mph93%29.95 "HgN/A
12:30 PM34 °FLow clouds.10 mph87%29.95 "HgN/A
12:00 PM34 °FLow clouds.13 mph87%29.95 "HgN/A
Weather by CustomWeather, © 2014

See weather overviewHow to use our weather pages